SCP
-0 0 1 1 0 0 0 0 0 0 0 0 0 0 0 0 0 0 0 0 0 0 0 0 0 0 0 0 0 0 0 0 0 0 0 0 0 0 0 0 0 0 0
0 0 1 1 1 0 0 0 0 0 0 0 0 0 0 0 0 0 0 0 0 0 0 0 0 0 0 0 0 0 0 0 0 0 0 0 0 0 0 0 0 0 0
0 0 1 1 1 1 0 0 0 0 0 0 0 0 0 0 0 0 0 0 0 0 0 0 0 0 0 0 0 0 0 0 0 0 0 0 0 0 0 0 0 0 0
0 0 1 1 1 1 0 0 0 0 0 0 0 0 0 0 0 0 0 0 0 0 0 0 0 0 0 0 0 0 0 0 0 0 0 0 0 0 0 0 0 0 0
0 0 0 1 1 1 0 0 0 0 -0 0 0 0 0 0 0 0 0 0 0 0 0 0 0 0 0 0 0 0 0 0 0 0 0 0 0 0 0 0 0 0 0
0 0 1 1 1 1 1 0 0 0 0 0 0 0 0 0 0 0 0 0 0 0 0 0 0 0 0 0 0 0 0 0 0 0 0 0 0 0 1 1 0 0 0
0 0 1 0 0 1 1 1 0 0 0 0 0 0 0 0 0 0 0 0 0 0 0 0 0 0 0 0 0 0 0 0 0 0 0 0 0 0 1 1 0 0 0
0 0 0 0 0 1 1 1 0 0 0 0 0 0 0 0 0 0 0 0 0 0 0 0 0 0 0 0 0 0 0 0 0 0 0 0 0 0 1 1 0 0 0
0 0 0 0 1 0 1 1 0 0 0 0 0 0 0 0 0 0 0 0 0 0 0 0 0 0 0 0 0 0 0 0 0 0 0 0 0 1 0 1 0 0 0
0 0 0 0 1 1 1 2 0 0 0 0 1 1 1 1 1 1 0 0 0 0 0 0 0 0 0 0 0 0 0 0 0 0 0 0 0 0 0 0 0 0 0
0 0 1 1 0 1 1 1 1 1 1 1 1 1 1 1 1 0 0 0 0 0 0 0 0 0 0 0 0 0 0 0 0 0 0 0 0 0 0 0 0 0 0
0 1 1 1 1 1 1 1 1 1 1 1 1 1 1 1 0 0 0 1 0 0 0 0 0 0 0 0 0 0 0 0 0 0 0 0 0 0 0 0 0 0 0
0 1 1 1 1 1 0 1 2 1 1 2 1 1 1 1 0 0 0 1 1 0 0 0 0 0 0 0 0 0 0 0 0 0 0 0 0 0 0 0 0 0 0
0 1 2 2 2 1 0 0 1 1 1 2 2 1 1 1 0 0 0 0 0 0 0 0 0 0 0 0 0 0 0 0 0 0 0 0 0 0 0 0 0 0 0
0 0 2 2 2 1 1 1 1 1 2 2 2 1 1 0 0 0 0 0 0 0 0 0 0 0 0 0 0 0 0 0 0 0 0 -0 0 0 0 0 0 0 0
0 0 0 2 1 1 1 1 1 1 1 2 2 1 0 1 0 0 0 0 0 0 0 0 0 0 0 0 0 0 0 0 0 0 0 0 0 0 0 0 0 0 0
0 0 0 1 1 1 1 1 2 2 2 2 1 1 0 0 0 0 0 0 0 0 0 0 0 0 0 0 0 0 0 0 0 0 0 0 0 0 0 0 0 0 0
0 0 0 1 1 1 1 1 2 2 2 2 1 1 0 0 0 0 0 0 0 0 0 0 0 0 0 0 0 0 0 0 0 0 0 0 0 0 0 0 0 0 0
0 0 0 0 1 1 1 1 2 2 3 2 1 1 1 0 1 1 1 0 1 1 1 1 0 0 0 0 0 0 0 0 0 0 0 0 0 0 0 0 0 0 0
0 0 0 1 1 1 1 2 2 2 2 1 1 1 1 1 1 1 1 0 0 1 1 0 0 0 0 0 0 0 0 0 0 0 0 0 0 0 0 0 0 0 0
0 0 0 1 1 2 2 3 3 2 1 1 1 1 1 1 1 0 0 0 1 1 1 0 0 0 0 0 0 0 0 0 0 0 0 0 0 0 0 0 0 0 0
0 0 0 0 2 2 2 2 3 2 1 1 0 1 0 1 0 1 0 0 0 0 0 0 0 0 0 0 0 0 0 0 0 0 0 0 0 0 0 0 0 0 0
0 0 0 1 2 3 2 2 1 1 1 1 0 0 0 0 0 0 0 0 0 0 0 0 0 0 0 0 0 0 0 0 0 0 0 0 0 0 0 0 0 0 0
0 1 2 2 2 2 1 1 1 2 1 1 0 0 0 0 0 0 0 0 0 0 0 0 0 0 0 0 0 0 0 0 0 0 0 0 0 0 0 0 0 0 0
1 1 1 1 1 1 1 1 1 0 0 0 0 0 0 0 0 0 0 0 0 0 0 0 0 0 0 0 0 0 0 0 0 0 0 0 0 0 0 0 0 0 0
0 1 0 1 1 1 1 0 0 0 0 0 0 0 0 0 0 0 0 0 0 0 0 0 0 0 0 0 0 -0 0 0 0 0 0 0 0 0 0 0 0 0 0
Wind_Speed_500mb
32 44 40 41 33 24 20 18 17 18 17 16 16 16 14 11 7 3 2 5 9 11 12 15 15 14 14 14 14 17 21 27 32 30 25 20 14 12 12 11 13 18 19
25 37 40 43 37 28 24 21 19 19 17 15 14 14 13 12 10 7 4 2 5 8 9 10 10 11 11 11 11 11 14 18 23 28 31 27 22 16 14 12 16 17 18
10 37 46 46 39 31 27 24 21 19 17 14 11 11 10 10 10 9 8 5 3 4 5 5 6 8 9 9 9 10 11 12 16 19 26 31 26 20 17 17 16 17 20
13 24 43 49 42 34 31 27 24 23 20 16 12 10 7 7 8 10 10 7 5 4 4 4 6 8 10 9 8 8 10 12 12 14 17 26 32 28 25 22 18 20 22
15 17 37 49 45 38 35 32 29 28 25 21 16 11 6 4 7 10 11 9 5 5 6 7 7 8 10 12 13 12 11 12 11 8 13 21 33 32 25 28 20 20 25
10 12 29 48 47 43 41 37 36 34 31 27 22 15 9 3 5 8 10 11 9 7 9 11 12 13 17 17 19 22 18 14 12 8 13 25 28 27 24 26 23 20 25
11 21 26 49 52 48 47 44 42 41 37 32 26 20 13 6 2 7 9 11 11 10 10 12 17 20 27 27 27 25 26 23 18 12 21 29 22 21 16 23 21 20 23
22 27 28 44 56 54 53 51 49 46 42 37 32 28 21 15 10 8 9 10 10 11 13 15 21 26 30 31 31 32 31 28 26 20 25 31 19 23 24 23 26 24 21
32 34 41 41 60 61 56 57 56 51 47 43 40 36 30 24 18 14 13 12 8 8 11 13 18 22 26 30 34 37 34 34 30 26 27 33 25 22 29 27 28 34 36
39 44 45 50 55 69 66 63 61 59 54 50 48 44 38 33 27 22 19 16 12 9 7 7 12 16 21 24 28 35 38 37 37 32 30 36 33 27 25 32 35 27 33
44 51 51 56 56 66 73 68 67 64 60 56 54 52 48 44 36 30 24 20 15 8 7 6 12 13 15 21 25 28 32 37 37 39 33 36 42 37 35 36 34 29 28
33 43 51 59 64 67 76 77 75 72 69 67 64 62 58 51 42 36 30 26 18 12 12 12 12 12 13 15 19 20 19 16 20 25 36 39 46 43 40 34 35 31 24
38 31 40 51 72 71 76 80 83 80 78 75 72 70 63 55 48 44 36 31 23 19 15 17 17 17 15 12 6 14 11 16 23 25 21 39 46 46 41 40 33 27 27
43 52 53 43 57 73 80 83 79 84 84 80 78 77 69 61 55 48 40 34 28 25 19 21 23 20 21 17 17 15 18 14 20 19 19 30 38 39 42 42 37 29 25
56 53 53 59 57 69 76 84 79 78 83 80 77 79 72 64 60 50 40 37 31 28 27 26 27 31 28 27 26 27 26 23 30 34 29 32 36 32 36 40 36 29 28
71 62 67 66 61 61 77 80 78 82 78 81 74 75 70 60 60 50 38 33 36 33 31 31 35 39 40 36 34 32 34 39 35 39 29 32 34 29 30 30 36 33 31
67 64 74 74 69 57 62 72 76 85 80 78 68 60 57 49 47 37 31 35 36 33 35 38 39 42 45 47 45 40 39 41 40 40 44 38 34 33 34 28 34 33 32
68 64 59 56 62 50 47 52 63 72 81 77 65 56 53 44 38 35 31 31 33 39 41 42 40 41 46 53 57 48 46 42 39 36 36 37 37 37 31 27 25 26 30
78 60 51 63 56 44 45 51 65 71 81 71 61 55 52 44 40 36 29 26 31 37 35 37 42 44 44 45 51 48 45 44 44 37 33 37 45 42 33 22 24 24 24
77 61 60 59 45 48 50 59 73 81 77 63 59 53 48 44 39 32 29 30 34 33 37 42 44 44 40 35 35 40 40 44 43 40 37 34 42 41 39 30 23 23 21
43 43 51 55 46 52 55 62 72 80 75 64 57 50 45 40 33 32 33 33 30 33 40 41 44 42 38 33 31 37 43 46 46 43 43 38 40 42 38 37 33 30 24
48 52 48 52 44 46 53 65 70 74 68 57 46 48 44 39 36 37 32 28 30 37 43 39 39 36 32 29 28 26 20 31 48 42 39 41 45 38 39 30 35 33 31
64 53 46 48 44 50 61 65 70 66 54 52 48 41 26 32 36 30 29 30 37 43 41 37 30 26 20 20 25 18 11 12 24 38 39 42 42 38 37 34 31 33 30
77 52 46 49 55 62 65 60 66 76 71 56 47 36 33 38 33 31 36 34 38 40 29 18 18 19 20 25 27 33 20 3 13 3 31 43 40 41 37 33 32 33 34
54 38 41 44 45 53 54 50 52 57 55 48 37 41 39 38 35 34 32 34 28 19 14 15 13 13 16 23 30 30 37 30 15 12 7 36 40 41 31 31 29 32 38
38 36 37 39 41 41 37 36 40 47 48 48 46 43 40 36 29 30 31 21 13 11 9 9 9 4 8 10 22 31 31 37 41 30 23 25 40 36 34 32 34 35 33
Wind_Direction_500mb
171 182 178 176 178 175 167 151 140 127 115 107 101 97 96 96 99 115 217 236 232 232 225 232 241 240 241 245 235 239 242 238 236 235 229 222 219 202 212 205 180 175 163
144 176 184 182 183 182 176 164 155 142 132 122 110 99 92 89 83 69 58 325 269 249 238 228 234 250 256 249 245 234 237 241 240 234 230 221 212 211 199 212 197 195 169
151 179 186 186 187 185 179 173 164 159 147 141 131 115 101 87 73 60 45 23 333 279 253 252 249 248 254 258 259 264 254 236 232 234 227 220 209 200 205 212 206 195 182
178 179 191 190 190 188 185 183 177 175 165 160 162 145 113 74 48 37 30 26 354 331 296 246 235 240 245 252 258 261 272 271 245 220 220 211 204 197 207 211 208 202 197
173 178 196 196 193 193 192 188 187 184 178 177 180 169 140 84 37 22 13 5 344 310 288 263 268 246 239 241 250 256 257 263 267 242 216 198 195 198 210 212 215 210 199
176 190 204 202 200 200 199 195 195 193 193 190 190 183 168 130 33 15 6 354 330 302 279 277 271 263 257 255 251 250 253 245 256 234 206 182 189 198 213 206 220 222 204
213 209 214 209 206 204 205 203 202 201 201 201 198 199 197 207 310 353 354 345 329 306 272 267 267 257 259 259 259 253 249 247 252 232 189 186 186 172 207 217 223 223 214
237 213 215 217 215 211 211 208 208 207 207 209 208 211 214 228 245 288 323 326 326 301 284 281 275 268 263 259 255 257 248 249 248 228 200 196 197 190 207 239 243 242 234
228 221 216 223 218 217 217 215 212 212 212 214 218 219 222 229 241 256 287 301 304 287 286 288 282 273 270 264 258 253 248 245 245 235 217 209 201 205 214 231 244 252 248
225 222 225 224 222 220 219 220 218 218 217 220 223 223 229 231 238 245 265 280 282 275 274 323 330 296 274 268 260 253 248 243 244 240 226 218 219 216 227 230 236 245 246
223 229 234 231 229 225 222 224 221 221 223 224 226 227 231 234 237 243 256 265 272 271 275 306 332 318 289 278 265 253 246 245 242 240 232 224 221 229 234 233 232 237 242
228 229 233 236 235 231 226 224 223 221 224 227 229 231 231 235 239 247 254 259 257 269 280 289 306 307 309 303 266 249 237 243 249 243 240 223 224 228 235 234 232 236 240
271 247 238 236 236 235 232 227 226 225 227 231 232 234 235 236 238 244 252 253 251 260 270 274 279 281 288 284 277 207 233 256 250 255 265 227 219 221 238 230 232 229 238
259 265 270 259 241 235 235 230 231 229 229 232 236 235 235 237 239 243 250 253 255 261 260 267 261 266 271 264 244 243 243 258 254 264 257 223 213 221 234 224 230 235 238
270 264 270 268 263 236 233 231 235 236 234 235 239 238 237 240 243 243 252 250 257 259 254 270 273 269 269 263 252 257 254 257 260 267 254 224 220 231 227 226 223 230 241
280 267 271 267 258 238 230 233 241 236 239 237 240 240 239 244 245 241 243 249 254 257 258 269 278 277 277 266 252 251 257 263 259 257 255 235 232 224 234 239 237 237 243
281 273 276 268 252 237 234 239 243 236 239 238 236 232 231 238 236 226 235 248 251 256 262 270 271 269 268 263 259 258 257 256 249 246 247 240 223 238 236 241 247 246 246
277 274 281 255 238 239 238 246 246 245 238 241 236 233 229 227 220 225 240 252 258 257 265 266 267 268 266 258 257 257 257 248 239 238 244 240 217 226 232 243 243 255 245
264 270 253 231 236 238 242 247 247 243 239 238 235 231 225 223 219 222 236 253 261 258 263 278 274 274 271 260 257 256 254 242 237 236 245 231 222 232 232 235 241 258 249
257 254 244 239 241 236 238 242 238 235 234 232 232 225 219 222 217 228 233 251 270 266 268 280 279 282 271 263 258 253 246 239 234 230 235 232 226 226 230 226 235 247 252
254 256 236 234 232 229 231 236 229 227 225 223 217 216 213 219 222 223 228 257 261 267 281 286 283 278 273 266 254 250 246 239 231 238 234 233 226 229 240 228 232 245 252
252 257 246 241 239 241 243 238 227 221 213 209 198 201 207 210 211 215 242 255 261 274 279 282 279 275 268 263 248 245 248 231 228 231 234 231 225 228 224 229 232 239 251
261 260 249 241 243 240 236 223 214 204 198 189 190 199 183 202 209 228 241 260 270 272 280 278 267 262 260 248 238 214 203 214 220 234 235 230 226 217 217 229 230 242 243
268 259 244 247 245 228 220 214 210 202 198 200 214 220 209 206 218 238 261 269 264 276 273 257 257 260 251 238 231 225 217 193 201 226 234 231 225 222 223 235 238 240 239
255 242 233 224 220 213 209 207 201 198 204 206 200 202 201 213 227 248 255 267 268 254 250 258 266 265 266 251 236 234 228 224 235 214 286 215 218 225 230 229 234 234 228
207 204 196 190 189 189 190 185 191 192 185 185 191 201 208 220 244 257 258 248 243 233 261 250 239 263 288 266 238 230 229 222 220 220 227 213 216 219 223 235 236 245 236
Wind_Speed_850mb
32 44 40 41 33 24 20 18 17 18 17 16 16 16 14 11 7 3 2 5 9 11 12 15 15 14 14 14 14 17 21 27 32 30 25 20 14 12 12 11 13 18 19
25 37 40 43 37 28 24 21 19 19 17 15 14 14 13 12 10 7 4 2 5 8 9 10 10 11 11 11 11 11 14 18 23 28 31 27 22 16 14 12 16 17 18
10 37 46 46 39 31 27 24 21 19 17 14 11 11 10 10 10 9 8 5 3 4 5 5 6 8 9 9 9 10 11 12 16 19 26 31 26 20 17 17 16 17 20
13 24 43 49 42 34 31 27 24 23 20 16 12 10 7 7 8 10 10 7 5 4 4 4 6 8 10 9 8 8 10 12 12 14 17 26 32 28 25 22 18 20 22
15 17 37 49 45 38 35 32 29 28 25 21 16 11 6 4 7 10 11 9 5 5 6 7 7 8 10 12 13 12 11 12 11 8 13 21 33 32 25 28 20 20 25
10 12 29 48 47 43 41 37 36 34 31 27 22 15 9 3 5 8 10 11 9 7 9 11 12 13 17 17 19 22 18 14 12 8 13 25 28 27 24 26 23 20 25
11 21 26 49 52 48 47 44 42 41 37 32 26 20 13 6 2 7 9 11 11 10 10 12 17 20 27 27 27 25 26 23 18 12 21 29 22 21 16 23 21 20 23
22 27 28 44 56 54 53 51 49 46 42 37 32 28 21 15 10 8 9 10 10 11 13 15 21 26 30 31 31 32 31 28 26 20 25 31 19 23 24 23 26 24 21
32 34 41 41 60 61 56 57 56 51 47 43 40 36 30 24 18 14 13 12 8 8 11 13 18 22 26 30 34 37 34 34 30 26 27 33 25 22 29 27 28 34 36
39 44 45 50 55 69 66 63 61 59 54 50 48 44 38 33 27 22 19 16 12 9 7 7 12 16 21 24 28 35 38 37 37 32 30 36 33 27 25 32 35 27 33
44 51 51 56 56 66 73 68 67 64 60 56 54 52 48 44 36 30 24 20 15 8 7 6 12 13 15 21 25 28 32 37 37 39 33 36 42 37 35 36 34 29 28
33 43 51 59 64 67 76 77 75 72 69 67 64 62 58 51 42 36 30 26 18 12 12 12 12 12 13 15 19 20 19 16 20 25 36 39 46 43 40 34 35 31 24
38 31 40 51 72 71 76 80 83 80 78 75 72 70 63 55 48 44 36 31 23 19 15 17 17 17 15 12 6 14 11 16 23 25 21 39 46 46 41 40 33 27 27
43 52 53 43 57 73 80 83 79 84 84 80 78 77 69 61 55 48 40 34 28 25 19 21 23 20 21 17 17 15 18 14 20 19 19 30 38 39 42 42 37 29 25
56 53 53 59 57 69 76 84 79 78 83 80 77 79 72 64 60 50 40 37 31 28 27 26 27 31 28 27 26 27 26 23 30 34 29 32 36 32 36 40 36 29 28
71 62 67 66 61 61 77 80 78 82 78 81 74 75 70 60 60 50 38 33 36 33 31 31 35 39 40 36 34 32 34 39 35 39 29 32 34 29 30 30 36 33 31
67 64 74 74 69 57 62 72 76 85 80 78 68 60 57 49 47 37 31 35 36 33 35 38 39 42 45 47 45 40 39 41 40 40 44 38 34 33 34 28 34 33 32
68 64 59 56 62 50 47 52 63 72 81 77 65 56 53 44 38 35 31 31 33 39 41 42 40 41 46 53 57 48 46 42 39 36 36 37 37 37 31 27 25 26 30
78 60 51 63 56 44 45 51 65 71 81 71 61 55 52 44 40 36 29 26 31 37 35 37 42 44 44 45 51 48 45 44 44 37 33 37 45 42 33 22 24 24 24
77 61 60 59 45 48 50 59 73 81 77 63 59 53 48 44 39 32 29 30 34 33 37 42 44 44 40 35 35 40 40 44 43 40 37 34 42 41 39 30 23 23 21
43 43 51 55 46 52 55 62 72 80 75 64 57 50 45 40 33 32 33 33 30 33 40 41 44 42 38 33 31 37 43 46 46 43 43 38 40 42 38 37 33 30 24
48 52 48 52 44 46 53 65 70 74 68 57 46 48 44 39 36 37 32 28 30 37 43 39 39 36 32 29 28 26 20 31 48 42 39 41 45 38 39 30 35 33 31
64 53 46 48 44 50 61 65 70 66 54 52 48 41 26 32 36 30 29 30 37 43 41 37 30 26 20 20 25 18 11 12 24 38 39 42 42 38 37 34 31 33 30
77 52 46 49 55 62 65 60 66 76 71 56 47 36 33 38 33 31 36 34 38 40 29 18 18 19 20 25 27 33 20 3 13 3 31 43 40 41 37 33 32 33 34
54 38 41 44 45 53 54 50 52 57 55 48 37 41 39 38 35 34 32 34 28 19 14 15 13 13 16 23 30 30 37 30 15 12 7 36 40 41 31 31 29 32 38
38 36 37 39 41 41 37 36 40 47 48 48 46 43 40 36 29 30 31 21 13 11 9 9 9 4 8 10 22 31 31 37 41 30 23 25 40 36 34 32 34 35 33
Wind_Direction_850mb
171 182 178 176 178 175 167 151 140 127 115 107 101 97 96 96 99 115 217 236 232 232 225 232 241 240 241 245 235 239 242 238 236 235 229 222 219 202 212 205 180 175 163
144 176 184 182 183 182 176 164 155 142 132 122 110 99 92 89 83 69 58 325 269 249 238 228 234 250 256 249 245 234 237 241 240 234 230 221 212 211 199 212 197 195 169
151 179 186 186 187 185 179 173 164 159 147 141 131 115 101 87 73 60 45 23 333 279 253 252 249 248 254 258 259 264 254 236 232 234 227 220 209 200 205 212 206 195 182
178 179 191 190 190 188 185 183 177 175 165 160 162 145 113 74 48 37 30 26 354 331 296 246 235 240 245 252 258 261 272 271 245 220 220 211 204 197 207 211 208 202 197
173 178 196 196 193 193 192 188 187 184 178 177 180 169 140 84 37 22 13 5 344 310 288 263 268 246 239 241 250 256 257 263 267 242 216 198 195 198 210 212 215 210 199
176 190 204 202 200 200 199 195 195 193 193 190 190 183 168 130 33 15 6 354 330 302 279 277 271 263 257 255 251 250 253 245 256 234 206 182 189 198 213 206 220 222 204
213 209 214 209 206 204 205 203 202 201 201 201 198 199 197 207 310 353 354 345 329 306 272 267 267 257 259 259 259 253 249 247 252 232 189 186 186 172 207 217 223 223 214
237 213 215 217 215 211 211 208 208 207 207 209 208 211 214 228 245 288 323 326 326 301 284 281 275 268 263 259 255 257 248 249 248 228 200 196 197 190 207 239 243 242 234
228 221 216 223 218 217 217 215 212 212 212 214 218 219 222 229 241 256 287 301 304 287 286 288 282 273 270 264 258 253 248 245 245 235 217 209 201 205 214 231 244 252 248
225 222 225 224 222 220 219 220 218 218 217 220 223 223 229 231 238 245 265 280 282 275 274 323 330 296 274 268 260 253 248 243 244 240 226 218 219 216 227 230 236 245 246
223 229 234 231 229 225 222 224 221 221 223 224 226 227 231 234 237 243 256 265 272 271 275 306 332 318 289 278 265 253 246 245 242 240 232 224 221 229 234 233 232 237 242
228 229 233 236 235 231 226 224 223 221 224 227 229 231 231 235 239 247 254 259 257 269 280 289 306 307 309 303 266 249 237 243 249 243 240 223 224 228 235 234 232 236 240
271 247 238 236 236 235 232 227 226 225 227 231 232 234 235 236 238 244 252 253 251 260 270 274 279 281 288 284 277 207 233 256 250 255 265 227 219 221 238 230 232 229 238
259 265 270 259 241 235 235 230 231 229 229 232 236 235 235 237 239 243 250 253 255 261 260 267 261 266 271 264 244 243 243 258 254 264 257 223 213 221 234 224 230 235 238
270 264 270 268 263 236 233 231 235 236 234 235 239 238 237 240 243 243 252 250 257 259 254 270 273 269 269 263 252 257 254 257 260 267 254 224 220 231 227 226 223 230 241
280 267 271 267 258 238 230 233 241 236 239 237 240 240 239 244 245 241 243 249 254 257 258 269 278 277 277 266 252 251 257 263 259 257 255 235 232 224 234 239 237 237 243
281 273 276 268 252 237 234 239 243 236 239 238 236 232 231 238 236 226 235 248 251 256 262 270 271 269 268 263 259 258 257 256 249 246 247 240 223 238 236 241 247 246 246
277 274 281 255 238 239 238 246 246 245 238 241 236 233 229 227 220 225 240 252 258 257 265 266 267 268 266 258 257 257 257 248 239 238 244 240 217 226 232 243 243 255 245
264 270 253 231 236 238 242 247 247 243 239 238 235 231 225 223 219 222 236 253 261 258 263 278 274 274 271 260 257 256 254 242 237 236 245 231 222 232 232 235 241 258 249
257 254 244 239 241 236 238 242 238 235 234 232 232 225 219 222 217 228 233 251 270 266 268 280 279 282 271 263 258 253 246 239 234 230 235 232 226 226 230 226 235 247 252
254 256 236 234 232 229 231 236 229 227 225 223 217 216 213 219 222 223 228 257 261 267 281 286 283 278 273 266 254 250 246 239 231 238 234 233 226 229 240 228 232 245 252
252 257 246 241 239 241 243 238 227 221 213 209 198 201 207 210 211 215 242 255 261 274 279 282 279 275 268 263 248 245 248 231 228 231 234 231 225 228 224 229 232 239 251
261 260 249 241 243 240 236 223 214 204 198 189 190 199 183 202 209 228 241 260 270 272 280 278 267 262 260 248 238 214 203 214 220 234 235 230 226 217 217 229 230 242 243
268 259 244 247 245 228 220 214 210 202 198 200 214 220 209 206 218 238 261 269 264 276 273 257 257 260 251 238 231 225 217 193 201 226 234 231 225 222 223 235 238 240 239
255 242 233 224 220 213 209 207 201 198 204 206 200 202 201 213 227 248 255 267 268 254 250 258 266 265 266 251 236 234 228 224 235 214 286 215 218 225 230 229 234 234 228
207 204 196 190 189 189 190 185 191 192 185 185 191 201 208 220 244 257 258 248 243 233 261 250 239 263 288 266 238 230 229 222 220 220 227 213 216 219 223 235 236 245 236